Pardubice, Czech Republic

1:50 PM CEST on March 28, 2017 (GMT +0200)
Pardubice

Weather History for LKPD - June, 2013

Change the Weather History Date:

Sunday, June 9, 2013

  Actual Average Record
Temperature  
Mean Temperature 64 °F -  
Max Temperature 78 °F - - ()
Min Temperature 51 °F - - ()
Growing Degree Days 14 (Base 50)    
Moisture  
Dew Point 57 °F    
Average Humidity 77    
Maximum Humidity 100    
Minimum Humidity 44    
Precipitation  
Precipitation 0.00 in - - ()
Sea Level Pressure  
Sea Level Pressure 29.81 in    
Wind  
Wind Speed 3 mph ()    
Max Wind Speed 14 mph    
Max Gust Speed 17 mph    
Visibility 4.4 miles    
Events Fog , Rain , Thunderstorm    
T = Trace of Precipitation, MM = Missing Value Source: Averaged Metar Reports

Daily Weather History Graph

Daily Weather History Graph

Search for Another Location

Airport or City:

Trip Planner

Search our weather history database for the weather conditions in past years. The results will help you decide how hot, cold, wet, or windy it might be!

Date:

Astronomy

Jun. 09, 2013 Rise Set
Actual Time 4:48 AM CEST 9:04 PM CEST
Civil Twilight 4:04 AM CEST 9:48 PM CEST
Nautical Twilight 3:00 AM CEST 10:52 PM CEST
Astronomical Twilight 1:28 AM CEST 12:24 AM CEST
Moon 5:36 AM CEST (6/9) 9:31 PM CEST (6/9)
Length of Visible Light 17h 44m
Length of Day
16h 16m
New Moon, 1% of the Moon is Illuminated
Jun 9
New Moon
Jun 16
First Quarter
Jun 23
Full
Jun 30
Last Quarter
Jul 8
New

Hourly Weather History & Observations

Time (CEST) Temp. Dew Point Humidity Pressure Visibility Wind Dir Wind Speed Gust Speed Precip Events Conditions
12:00 AM 59.0 °F 55.4 °F 88% 29.92 in - East 1.2 mph - N/A   Clear
1:00 AM 57.2 °F 55.4 °F 94% 29.89 in - East 3.5 mph - N/A   Clear
2:00 AM 57.2 °F 55.4 °F 94% 29.89 in - Calm Calm - N/A   Clear
3:00 AM 57.2 °F 55.4 °F 94% 29.89 in - Calm Calm - N/A   Clear
3:35 AM 53.6 °F 53.6 °F 100% 29.89 in 1.2 mi Calm Calm - N/A   Mist
3:51 AM 53.6 °F 53.6 °F 100% 29.89 in 0.3 mi Variable 2.3 mph - N/A Fog Fog
4:00 AM 53.6 °F 51.8 °F 94% 29.89 in 0.3 mi ESE 2.3 mph - N/A Fog Fog
5:00 AM 51.8 °F 51.8 °F 100% 29.86 in 0.3 mi Calm Calm - N/A Fog Fog
5:24 AM 51.8 °F 51.8 °F 100% 29.86 in 1.2 mi Variable 1.2 mph - N/A   Mist
6:00 AM 55.4 °F 55.4 °F 100% 29.86 in 2.5 mi Calm Calm - N/A   Mist
6:29 AM 55.4 °F 55.4 °F 100% 29.86 in 5.0 mi Calm Calm - N/A   Unknown
7:00 AM 57.2 °F 57.2 °F 100% 29.86 in 5.0 mi Calm Calm - N/A   Unknown
8:00 AM 62.6 °F 59.0 °F 88% 29.86 in 5.0 mi Variable 2.3 mph - N/A   Unknown
9:00 AM 68.0 °F 59.0 °F 73% 29.83 in - Variable 2.3 mph - N/A   Clear
10:00 AM 73.4 °F 60.8 °F 65% 29.83 in 6.2 mi ESE 5.8 mph - N/A   Mostly Cloudy
11:00 AM 75.2 °F 60.8 °F 61% 29.83 in 6.2 mi ENE 6.9 mph - N/A   Mostly Cloudy
12:00 PM 77.0 °F 57.2 °F 50% 29.80 in 6.2 mi East 10.4 mph - N/A   Mostly Cloudy
1:00 PM 78.8 °F 60.8 °F 54% 29.77 in 6.2 mi East 11.5 mph - N/A   Mostly Cloudy
2:00 PM 78.8 °F 57.2 °F 47% 29.77 in 6.2 mi East 11.5 mph - N/A   Mostly Cloudy
3:00 PM 78.8 °F 55.4 °F 44% 29.74 in - SE 5.8 mph - N/A   Clear
4:00 PM 78.8 °F 60.8 °F 54% 29.71 in - South 9.2 mph - N/A   Clear
5:00 PM 77.0 °F 57.2 °F 50% 29.71 in - SSW 11.5 mph - N/A   Clear
5:07 PM 78.8 °F 55.4 °F 44% 29.71 in 6.2 mi SSW 13.8 mph - N/A Thunderstorm Thunderstorm
6:00 PM 75.2 °F 57.2 °F 53% 29.71 in - South 6.9 mph - N/A   Clear
7:00 PM 75.2 °F 59.0 °F 57% 29.71 in - Variable 1.2 mph - N/A   Clear
8:00 PM 64.4 °F 59.0 °F 83% 29.74 in 6.2 mi Variable 6.9 mph 17.3 mph N/A Rain Light Rain
9:00 PM 64.4 °F 57.2 °F 77% 29.74 in 6.2 mi North 4.6 mph - N/A Thunderstorm Mostly Cloudy
10:00 PM 62.6 °F 57.2 °F 82% 29.74 in 6.2 mi Calm Calm - N/A   Mostly Cloudy
11:00 PM 62.6 °F 57.2 °F 82% 29.71 in - Variable 1.2 mph - N/A   Clear
11:24 PM 60.8 °F 59.0 °F 94% 29.71 in 6.2 mi Calm Calm - N/A Rain , Thunderstorm Thunderstorms and Rain